Flag for U.S.A. Weather past 2 weeks in Grand Rapids, Michigan, U.S.A.

Now
63 °F

Passing clouds.


Feels Like: 63 °F
Forecast: 57 / 69 °F
Wind: 14 mph from Southwest

Location: Kent County International Airport

Current Time: Sep 20, 2014 at 7:57:22 AM

Latest Report: Sep 20, 2014 at 6:53 AM


Visibility: 10 mi

Pressure: 29.90 "Hg

Humidity: 68%

Dew point: 52 °F

Location of Grand RapidsLocation

Historic Weather in Grand Rapids — Graph

°F

Grand Rapids temperature yesterday

Maximum temperature yesterday: 70 °F (at 3:53 PM)
Minimum temperature yesterday: 46 °F (at 3:53 AM)
Average temperature yesterday: 58 °F

Past Weeks' High & Low Weather Summary

 TemperatureHumidityPressure
High83 °F (Sep 5, 11:53 AM)100% (Sep 5, 6:03 PM)30.36 "Hg (Sep 5, 6:03 PM)
Low41 °F (Sep 17, 4:53 AM)36% (Sep 8, 3:53 PM)29.52 "Hg (Sep 10, 3:53 PM)
Average60 °F79%30.10 "Hg
* Reported Sep 5 5:53 AM — Sep 20 5:53 AM, Grand Rapids, Weather by CustomWeather, © 2014

Note: Actual official high and low records may vary slightly from our data, if they occured in-between our weather recording intervals... More about our weather records

Advertising

Grand Rapids weather history for previous 24 hours

 ConditionsComfort  
Time TempWeatherWind HumidityBarometerVisibility
5:53 AM
Sep 20
62 °FPartly cloudy.13 mph67%29.92 "Hg10 mi
4:53 AM62 °FPassing clouds.13 mph65%29.92 "Hg10 mi
3:53 AM61 °FPassing clouds.9 mph65%29.93 "Hg10 mi
2:53 AM59 °FClear.8 mph69%29.93 "Hg10 mi
1:53 AM59 °FClear.10 mph67%29.94 "Hg10 mi
12:53 AM62 °FClear.12 mph60%29.96 "Hg10 mi
11:53 PM
Sep 19
62 °FPassing clouds.16 mph62%29.98 "Hg10 mi
10:53 PM61 °FPassing clouds.12 mph70%30.00 "Hg10 mi
9:53 PM58 °FPassing clouds.7 mph81%30.02 "Hg10 mi
8:53 PM58 °FClear.6 mph81%30.03 "Hg10 mi
7:53 PM63 °FPartly sunny.6 mph68%30.04 "Hg10 mi
6:53 PM67 °FPartly sunny.9 mph61%30.04 "Hg10 mi
5:53 PM70 °FPartly sunny.12 mph55%30.05 "Hg10 mi
4:53 PM70 °FPartly sunny.13 mph55%30.09 "Hg10 mi
3:53 PM70 °FPartly sunny.15 mph55%30.11 "Hg10 mi
2:53 PM69 °FPartly sunny.14 mph57%30.14 "Hg10 mi
1:53 PM68 °FPartly sunny.14 mph61%30.15 "Hg10 mi
12:53 PM66 °FPassing clouds.12 mph65%30.18 "Hg10 mi
11:53 AM64 °FPassing clouds.10 mph73%30.21 "Hg10 mi
10:53 AM60 °FPassing clouds.15 mph78%30.22 "Hg10 mi
9:53 AM53 °FFog.8 mph96%30.24 "Hg4 mi
8:53 AM50 °FFog.9 mph100%30.25 "Hg1 mi
7:53 AM49 °FFog.7 mph100%30.24 "Hg0 mi
Weather by CustomWeather, © 2014

See weather overviewHow to use our weather pages